SCP
3 3 3 4 4 4 4 3 2 2 2 2 1 1 1 1 1 1 1 1 1 0 1 1 0 0 0 0 0 0 0 0 0 0 0 0 0 1 2 2 2 2 2
3 3 4 4 4 5 4 3 2 2 2 2 1 1 1 1 1 1 1 1 1 1 1 1 1 0 0 0 1 0 0 0 0 0 0 0 1 1 1 2 2 2 2
3 3 3 4 4 4 4 3 2 2 2 1 1 1 1 1 1 1 1 1 1 1 1 1 1 1 1 1 1 1 1 1 1 1 1 1 1 1 1 1 1 2 2
3 3 3 3 4 4 4 3 2 2 2 2 1 1 1 1 1 1 1 1 1 1 1 1 1 1 1 1 1 1 1 1 1 1 1 1 1 1 1 1 1 1 1
3 3 3 3 4 5 5 3 3 3 3 2 1 1 1 1 1 1 1 1 1 1 1 1 1 1 1 1 1 1 1 1 1 1 1 1 2 2 2 1 1 1 1
4 4 3 4 5 7 7 5 5 5 3 2 1 1 1 1 1 1 1 1 1 1 1 1 1 1 1 2 2 2 1 1 1 2 2 3 3 3 3 2 2 1 1
5 5 4 4 6 9 9 8 8 7 5 2 1 1 1 1 1 1 1 1 1 1 1 1 1 1 1 2 2 2 2 2 2 3 3 4 4 4 4 3 3 2 1
7 6 5 4 5 8 9 11 11 10 7 4 2 2 1 1 1 1 1 1 1 1 1 1 1 1 1 2 3 3 3 3 3 3 4 5 5 5 5 4 3 2 1
8 7 5 4 4 5 7 11 13 12 8 6 4 2 2 2 1 1 1 1 1 1 1 1 1 1 2 2 3 3 4 4 4 4 4 5 5 5 5 4 3 2 1
8 7 6 4 4 4 6 9 13 12 10 8 6 4 2 2 2 2 2 1 1 1 1 1 1 2 2 2 3 4 4 5 5 5 5 5 6 5 4 3 2 2 2
6 6 6 5 4 5 6 8 11 12 10 9 8 5 3 3 2 2 2 2 2 2 2 2 2 2 2 3 4 4 5 5 5 5 5 5 5 5 3 3 2 2 2
4 4 4 4 4 5 6 8 9 11 10 9 7 5 3 3 3 3 3 3 3 3 3 3 3 3 3 4 4 4 4 4 5 4 4 4 4 3 2 2 2 2 2
2 2 3 3 4 5 7 8 8 9 10 8 6 4 3 3 3 3 3 4 4 5 5 4 4 4 4 4 4 4 3 3 3 3 3 2 2 2 2 2 2 2 2
2 2 2 3 4 5 7 8 9 9 9 8 6 4 4 3 3 3 3 3 3 4 5 5 5 4 4 4 4 3 3 2 2 2 2 2 2 2 2 2 2 2 2
2 2 2 2 3 5 6 7 9 10 10 9 7 5 4 4 4 4 3 2 3 3 4 5 5 4 4 4 3 3 3 3 2 2 2 2 2 2 3 3 2 2 1
2 2 2 2 3 5 6 7 9 10 11 10 8 6 5 5 5 5 4 3 3 3 3 4 4 3 3 3 3 3 4 3 2 2 1 1 2 2 3 2 2 1 1
2 2 2 3 4 5 5 6 8 10 11 10 8 6 6 6 6 6 5 4 4 4 4 4 4 3 3 2 2 2 2 2 2 1 1 1 2 2 2 2 2 1 1
2 2 3 4 6 6 5 5 7 10 10 10 8 7 7 6 6 7 7 6 6 5 4 4 5 4 4 2 1 1 1 1 1 1 1 1 1 2 2 2 2 2 2
3 3 4 6 7 6 5 5 7 9 10 9 8 8 7 6 6 7 7 7 7 5 5 5 6 6 6 4 2 1 1 1 2 2 2 1 1 1 1 1 2 2 2
4 4 5 7 7 6 5 5 7 8 9 8 8 7 6 6 6 6 7 7 7 6 5 6 7 8 7 6 3 1 1 2 2 2 2 1 1 1 1 1 2 2 2
5 5 6 7 7 7 6 6 7 8 8 7 6 5 5 6 6 7 7 7 7 6 6 6 8 9 8 7 4 2 1 2 2 2 2 2 1 1 1 1 1 2 2
5 5 6 8 8 7 6 6 7 7 7 6 4 4 4 5 6 7 7 7 7 7 7 7 8 9 8 6 4 2 1 1 2 2 2 2 1 1 0 0 1 1 1
5 6 7 9 8 7 6 5 5 6 6 5 4 4 3 4 4 5 5 5 6 7 8 8 9 9 7 5 3 2 1 1 1 2 2 1 1 0 0 0 0 0 0
6 7 9 9 8 5 4 4 3 4 5 6 5 4 4 3 3 3 4 4 5 7 8 9 9 8 6 4 3 2 1 1 1 1 1 1 0 0 0 0 0 0 0
7 9 10 9 6 4 3 3 2 2 4 6 6 5 4 4 4 4 4 4 4 5 6 7 7 6 4 3 2 2 1 1 1 1 1 1 0 0 0 0 0 0 0
8 10 10 8 5 3 3 2 2 2 3 7 7 6 4 4 4 4 4 3 3 3 4 4 4 4 3 2 1 1 1 1 1 1 1 1 1 0 0 0 0 0 0
Wind_Speed
8 8 9 9 8 7 7 7 6 5 4 3 3 2 2 1 1 1 2 2 3 3 3 2 2 1 1 1 1 1 0 1 1 1 2 3 2 2 2 3 2 3 3
6 6 7 8 8 8 7 7 7 6 5 3 3 2 2 2 2 1 1 2 2 3 3 3 2 1 1 1 0 1 1 1 0 1 1 2 4 3 2 2 2 3 2
10 8 8 8 8 8 8 8 7 6 5 4 3 2 1 1 1 0 0 1 2 3 3 3 2 2 2 1 1 1 2 1 1 1 2 1 2 3 3 2 1 2 2
8 8 8 8 9 9 8 7 8 7 6 5 4 4 3 2 2 2 1 1 2 2 3 3 3 2 2 1 2 2 2 2 1 1 1 2 3 1 3 3 2 2 3
9 9 9 9 8 9 8 8 7 6 6 5 5 5 3 2 1 1 1 1 1 2 2 3 2 2 2 2 2 1 1 2 2 1 1 1 1 1 2 3 3 3 3
8 8 7 7 6 7 7 7 7 6 6 5 5 5 5 3 3 2 1 1 1 1 1 2 2 2 2 3 3 2 2 2 2 2 2 1 1 1 2 2 3 3 4
8 7 7 7 7 8 8 7 8 6 6 6 5 5 5 5 4 3 3 2 1 1 2 2 2 2 3 3 2 2 2 2 2 2 2 2 2 2 2 2 2 3 3
8 8 9 9 9 8 8 8 8 7 6 6 5 4 4 3 3 3 3 3 2 3 2 2 2 2 2 3 2 2 3 2 2 3 2 2 2 2 2 2 1 2 3
8 8 8 8 8 8 8 9 8 6 6 5 4 4 3 3 3 3 2 2 2 2 2 2 2 2 2 2 2 2 3 2 2 3 3 3 2 2 2 2 3 2 2
5 5 6 6 6 7 7 7 8 7 5 5 5 4 4 4 3 2 2 2 2 2 2 2 1 1 1 2 2 2 2 2 3 2 3 3 2 2 2 2 2 3 3
6 6 6 6 6 6 6 6 6 6 5 5 5 4 4 4 3 3 3 3 2 2 2 2 2 2 1 1 1 2 2 2 3 3 3 4 3 2 2 2 2 2 3
6 5 5 4 4 4 5 6 6 6 6 6 5 5 4 4 3 3 4 3 3 3 3 2 2 2 2 1 1 2 2 3 3 4 3 4 3 2 2 2 3 3 3
5 4 3 4 4 4 5 5 5 5 5 5 5 4 4 4 4 4 3 3 3 3 3 3 3 3 2 2 2 2 3 3 4 4 4 4 2 2 2 2 2 3 3
3 4 3 3 3 4 4 5 4 4 5 5 5 5 4 5 4 4 3 3 3 3 3 3 3 3 3 2 2 2 2 3 3 4 3 3 3 3 3 2 3 2 2
3 3 3 2 2 2 2 3 3 3 3 4 4 5 4 4 4 3 3 3 3 3 3 3 3 3 2 2 3 3 3 3 3 3 2 3 3 3 3 2 2 2 2
3 3 3 3 3 3 3 3 2 2 2 3 4 3 3 3 3 3 3 3 3 3 2 3 3 3 3 4 4 3 2 2 2 3 3 4 3 4 4 4 3 3 2
4 4 4 4 3 3 3 3 3 2 2 2 3 2 2 2 3 3 2 2 3 2 3 3 3 3 4 5 4 3 2 2 2 3 4 4 4 3 2 3 4 4 5
4 3 3 2 2 1 1 2 2 3 2 1 2 2 2 2 2 2 2 3 2 3 3 3 3 3 4 5 4 4 3 2 3 3 4 4 4 3 2 3 3 3 4
4 3 3 3 2 2 2 2 2 2 2 1 1 2 2 2 1 2 3 3 2 2 3 2 3 3 4 4 4 3 2 2 4 4 4 4 4 5 4 2 3 4 5
3 3 3 3 3 2 3 3 2 1 1 1 1 1 2 2 2 3 3 2 2 3 2 2 2 3 3 4 4 4 2 2 3 3 4 5 5 6 5 3 3 4 5
2 3 3 3 2 2 4 3 2 2 2 1 1 1 1 2 2 2 2 2 2 1 1 2 2 2 3 3 4 4 2 3 3 3 3 3 6 6 6 5 4 6 4
2 2 3 2 1 2 4 3 2 3 2 1 0 1 1 1 1 1 2 1 1 1 2 2 2 2 2 2 3 4 5 3 3 3 3 4 6 6 6 4 4 4 2
2 2 3 2 0 1 3 2 2 1 0 0 0 1 2 1 1 1 1 2 1 1 2 2 3 3 2 3 4 4 5 5 3 3 4 5 5 4 3 4 4 2 1
2 2 3 2 1 0 1 1 1 1 1 0 1 1 1 2 1 1 1 1 1 2 2 2 3 3 2 3 2 2 2 3 3 3 4 5 4 3 3 3 2 2 2
2 2 3 3 2 1 1 1 1 0 0 1 1 1 1 1 1 1 1 2 3 3 3 3 3 2 3 5 5 3 2 2 3 2 1 1 1 2 2 3 3 2 2
2 2 2 2 1 1 1 1 1 1 1 1 2 2 2 2 1 1 2 4 3 4 3 4 3 3 5 6 6 5 5 4 2 0 1 2 2 3 3 3 3 3 3
Wind_Direction
172 162 160 159 154 153 151 154 152 158 149 139 140 143 161 175 179 186 176 172 174 164 156 160 155 150 155 204 214 185 233 289 330 5 329 319 297 258 239 236 234 228 228
161 162 159 162 162 163 159 157 160 163 164 163 162 162 162 177 180 193 177 172 163 164 163 162 167 168 163 187 185 139 126 282 96 132 32 341 335 326 283 258 236 241 239
167 169 166 170 166 168 170 166 166 167 169 161 140 121 85 60 71 105 209 214 179 177 168 170 168 173 170 187 204 171 155 216 284 151 147 156 264 303 311 297 284 268 250
165 169 171 173 175 177 172 167 167 168 169 161 152 154 159 173 200 192 200 219 198 191 179 173 174 182 182 194 223 182 175 169 245 297 215 201 195 204 304 316 310 297 275
172 171 176 180 178 178 175 171 166 167 170 166 164 161 166 178 177 155 152 199 244 205 190 183 182 188 195 203 215 200 184 181 195 219 251 272 249 185 192 283 306 310 285
168 171 173 169 173 173 173 169 168 173 173 168 167 168 169 171 163 172 180 217 235 237 216 189 190 203 204 205 211 211 210 209 212 220 208 206 220 228 204 240 272 284 285
170 169 165 170 176 175 172 166 167 173 174 169 173 174 171 168 175 188 193 199 212 228 237 220 207 214 214 208 205 215 223 211 209 222 225 218 221 211 201 215 259 280 290
167 170 175 176 180 179 176 172 172 176 179 176 179 179 171 170 185 195 193 199 209 213 216 217 222 225 219 216 205 221 227 218 222 240 237 238 245 220 204 200 214 294 304
165 170 172 168 173 177 178 175 174 175 179 179 177 178 176 176 192 203 198 207 212 209 201 208 227 236 224 219 207 217 229 227 230 244 248 248 252 238 228 205 183 189 268
162 160 163 169 173 171 170 167 169 174 179 176 181 182 184 192 194 185 197 201 210 213 197 209 224 235 229 228 218 226 232 231 249 246 253 264 261 254 242 227 212 191 199
170 168 169 177 177 168 164 168 173 170 176 184 186 188 192 194 189 187 197 200 201 196 197 206 210 231 237 236 231 244 235 236 254 263 256 262 260 258 253 233 222 219 201
169 171 164 159 165 167 167 173 179 179 185 185 186 192 193 183 184 197 209 206 203 207 205 200 204 223 229 229 224 250 253 239 250 261 261 265 267 264 255 244 242 240 223
151 146 140 158 167 170 171 175 181 184 185 179 181 187 190 187 198 212 217 211 207 211 213 205 209 223 230 232 239 239 248 250 250 252 251 257 257 267 267 266 258 253 257
150 145 143 165 166 168 172 173 181 186 183 183 186 192 199 200 205 213 215 219 217 218 223 221 222 225 232 231 237 250 255 262 265 260 247 243 236 243 248 255 255 257 260
128 139 142 167 159 158 170 171 178 184 185 181 188 204 206 202 204 210 215 223 226 229 227 229 239 242 238 238 238 242 252 257 272 280 267 257 252 252 249 259 251 253 255
139 155 157 168 166 169 181 180 179 177 157 168 193 200 195 199 208 216 216 222 236 238 231 235 243 251 256 254 242 233 250 262 275 284 279 272 267 277 271 271 257 234 234
172 177 183 185 191 185 171 177 182 164 156 171 182 178 176 191 210 213 211 227 236 234 241 247 241 246 259 253 247 242 231 250 265 277 275 281 292 277 264 271 275 268 255
167 176 175 174 164 166 156 152 142 135 145 163 182 195 193 207 217 219 224 230 229 231 238 248 251 250 263 256 247 245 237 246 256 259 256 258 274 287 283 281 291 285 276
160 154 155 157 141 139 135 115 111 114 117 154 192 214 208 210 221 240 248 237 222 237 242 245 249 249 267 263 249 236 236 251 259 258 256 250 256 271 267 262 274 289 291
128 126 110 101 120 141 121 108 116 126 177 215 235 248 212 209 228 243 249 251 231 238 247 259 253 241 256 263 249 232 213 244 265 273 275 266 264 273 255 234 238 266 279
121 126 115 110 131 134 119 128 147 208 225 221 263 298 262 241 239 246 254 261 262 260 259 265 267 259 259 265 259 243 216 226 247 263 274 278 284 279 269 251 239 252 262
103 120 110 103 131 126 121 144 187 220 215 183 333 318 293 280 297 285 286 279 257 252 259 265 284 280 274 265 273 260 243 239 230 251 260 271 283 278 270 258 268 273 272
138 130 123 107 48 106 125 145 222 231 175 62 317 298 299 285 281 263 285 297 280 262 266 261 271 280 286 283 276 269 262 258 253 262 273 281 280 274 270 269 273 271 266
148 140 134 138 148 0 133 178 241 220 121 122 280 295 301 300 310 308 285 281 273 265 263 260 266 276 284 279 278 277 275 281 280 286 288 291 281 272 278 283 278 250 231
159 153 158 160 180 192 196 240 271 181 103 252 265 279 280 272 288 308 290 269 256 233 233 247 244 251 269 267 260 250 255 253 254 275 308 307 300 288 288 284 276 267 260
165 143 143 155 178 209 255 262 264 232 214 274 268 259 265 260 246 278 326 327 297 299 281 248 234 251 255 276 287 279 275 277 279 186 261 262 264 262 263 268 274 263 251